DELTA 1 DEB, 13529

Orbit data source: Space-Track

DELTA 1 DEB, 13529 is space debris in LEO originally from a launch on Thu, 29 Jul 1976 UTC launched from the Air Force Western Test Range (AFWTR). Debris objects in space refer to the collection of defunct objects orbiting the Earth. Examples of debris include non-operational satellites, rocket bodies, and fragments generated from explosions, collisions, or faulty payload assembly.

Loading next visibility...
Identifier
13529, 1976-077EB
Orbit
LEO
Country
Flag of USUS
Related business
Manufacturer
Unknown
Mission
Spacecraft
Bus & Motor
Unknown
Mass
Unknown
Launch date (UTC)
1976-07-29 (50 years ago)
Launch vehicle
Unknown
Launch site
Air Force Western Test Range (AFWTR)
Object type
Payload
Rocket body
Debris
Shape & HBR
Unknown shape, 0.1 m
Radar Cross Section
Medium (>0.1 m² and <1 m²)

Expand to show TLE details & history
Last TLE update: 2 days ago

TLE from 2 days ago
0 DELTA 1 DEB
1 13529U 76077EB  26254.60038370 -.00000005  00000-0  47963-3 0  9991
2 13529 101.8480 304.4477 0381139 222.8524 298.4914 11.66126160951959
Epoch: 2026-09-11T14:24Z
TLE epoch observation values (Epoch: 2026-09-11T14:24:33.151Z)
Latitude
22.08913°
Longitude
-77.45133°
Altitude
1,698.569 km
Speed
7.088 km/s
True Right ascension
08h 37m 13s
True Declination
21° 59' 01"
Sunlit
Object was in daylight at epoch
Visualization orbit readout
Latitude
Unknown
Longitude
Unknown
Altitude
Unknown
Speed
Unknown
Apparent Right ascension
Unknown
Apparent Declination
Unknown
Sunlit
N/A
Visualization observer readout
Local Sidereal Time
02:29:15
Azimuth
Unknown
Elevation
Unknown
Doppler factor
Unknown
Orbital elements
Apogee altitude
2,146.83 km
Perigee altitude
1,520.849 km
Semi-major axis
8,211.976 km
Eccentricity
0.03811
Inclination
101.848°
RAAN
304.4477°
Arg. of periapsis
222.8524°
True anomaly
294.56672°
Mean anomaly
298.4914°
Eccentric anomaly
296.53771°
Mean motion
2.91656 °/min
Orbital period
123.43 mins
BSTAR
0.00047963
Loading maneuver chart data...
Computing Atmospheric mass density...
Loading historical data...
Loading historical data...
Loading historical data...
Loading historical data...
Loading historical data...
Loading historical data...
Loading historical data...

Documentation

Showing up to 5 results
|